www.pogodaiklimat.ru

Погода и климат >> Архив погоды >> Австралия >> Северная территория >> Аэропорт Макартур Ривер Майн


ПОГОДА в Аэропорту Макартур Ривер Майн

  • Прогноз погоды в Аэропорту Макартур Ривер Майн
  • Монитор погоды в Аэропорту Макартур Ривер Майн

АРХИВ ПОГОДЫ в Аэропорту Макартур Ривер Майн

Время (UTC), дата Ветер
(напр.,м/с)
 
Видим.   Явления Облачность Т
(С)
Тd
(С)
f
(%)
Тe
(С)
Тes
(С)
Комфортность P
(гПа)
Po
(гПа)
Тmin
(С)
Tmax
(С)
R
(мм)
R24
(мм)
S
(см)
23 15.04 ЮВ 3 н/о н/о +26.8 +22.6 78 +35 +35 очень
душно
1014.4 1009.7
02 16.04 В 4 н/о 1/1 1500 м
[]
+32.7 +17.3 40 +36 +36 очень
душно
1013.8 1009.1 +21.0
05 16.04 В 3 н/о н/о +34.1 +15.1 32 +36 +36 душно 1010.7 1006.0
08 16.04 С 3 н/о 1/0
[]
+33.0 +16.8 38 +36 +36 очень
душно
1010.6 1005.9
11 16.04 СВ 4 н/о 1/0
[]
+28.6 +19.5 58 +34 +34 очень
душно
1013.1 1008.4
14 16.04 СВ 2 н/о н/о +25.9 +22.0 79 +33 +33 очень
душно
1013.7 1009.0 +35.2
17 16.04 штиль 0 н/о н/о +23.7 +21.4 87 +30 +30 очень
душно
1012.9 1008.2
20 16.04 штиль 0 н/о н/о +21.9 +20.7 93 +28 +28 душно 1013.0 1008.3
23 16.04 Ю 2 н/о н/о +26.5 +22.3 78 +35 +35 очень
душно
1014.9 1010.2
05 17.04 СВ 4 н/о 3/0 2000 м
[]
+34.1 +12.4 27 +34 +34 очень
жарко
1011.4 1006.7
08 17.04 ЮВ 2 н/о 3/0
[]
+33.7 +12.7 28 +34 +34 очень
жарко
1011.0 1006.3
11 17.04 СВ 4 н/о н/о +29.1 +16.6 47 +33 +33 очень
душно
1013.3 1008.6
14 17.04 штиль 0 н/о н/о +25.8 +20.4 72 +32 +32 очень
душно
1013.9 1009.2
17 17.04 штиль 0 н/о н/о +23.0 +20.5 86 +30 +30 очень
душно
1013.2 1008.5
20 17.04 штиль 0 н/о н/о +21.7 +20.2 91 +27 +27 душно 1013.6 1008.9
23 17.04 Ю 1 н/о н/о +26.7 +21.7 74 +34 +34 очень
душно
1014.8 1010.1
02 18.04 В 5 н/о 1/1 1500 м
[]
+32.4 +16.3 38 +35 +35 душно 1014.2 1009.5
05 18.04 ЮВ 2 н/о 1/0
[]
+34.7 +13.5 28 +35 +35 очень
жарко
1011.4 1006.7
08 18.04 В 3 н/о 1/0
[]
+33.7 +9.0 22 +32 +32 жарко 1011.4 1006.7
11 18.04 СВ 4 н/о н/о +28.3 +18.4 55 +33 +33 очень
душно
1013.8 1009.1
14 18.04 СВ 2 н/о 4/0
[]
+26.2 +21.8 77 +34 +34 очень
душно
1014.7 1010.0 +35.4
17 18.04 штиль 0 н/о 3/0
[]
+23.7 +21.0 85 +30 +30 очень
душно
1013.6 1008.9
20 18.04 штиль 0 н/о н/о +21.7 +20.3 92 +27 +27 душно 1013.8 1009.1
23 18.04 ЮВ 3 н/о н/о +26.7 +20.1 67 +33 +33 очень
душно
1015.5 1010.8
02 19.04 В 4 н/о н/о +33.6 +11.5 26 +33 +33 жарко 1014.4 1009.7 +21.4
05 19.04 С 3 н/о н/о +34.3 +6.6 18 +32 +32 жарко 1010.9 1006.2
08 19.04 В 3 н/о н/о +33.3 +7.3 20 +32 +32 жарко 1010.5 1005.8
11 19.04 СВ 4 н/о н/о +28.1 +19.9 61 +34 +34 очень
душно
1012.5 1007.8
14 19.04 СВ 3 н/о н/о +25.9 +21.8 78 +33 +33 очень
душно
1013.0 1008.3 +35.4
17 19.04 штиль 0 н/о н/о +23.1 +21.0 88 +31 +31 очень
душно
1012.1 1007.4
20 19.04 штиль 0 н/о н/о +21.4 +20.4 94 +27 +27 душно 1012.4 1007.7
23 19.04 ЮВ 1 н/о н/о +26.0 +21.9 78 +33 +33 очень
душно
1013.3 1008.6
02 20.04 В 4 н/о 1/0 2000 м
[]
+33.6 +12.0 27 +34 +34 очень
жарко
1012.8 1008.1 +20.8
05 20.04 ЮВ 3 н/о 3/0 2000 м
[]
+34.4 +10.9 24 +34 +34 очень
жарко
1010.2 1005.5
08 20.04 Ю 1 н/о 8/0
[]
+33.9 +11.1 25 +33 +33 жарко 1009.4 1004.7
11 20.04 СВ 4 н/о н/о +28.5 +19.7 59 +34 +34 очень
душно
1011.8 1007.1
14 20.04 СВ 2 н/о н/о +26.2 +21.4 75 +33 +33 очень
душно
1012.1 1007.4 +35.4
17 20.04 ЮЗ 1 н/о н/о +23.2 +20.7 86 +31 +31 очень
душно
1010.8 1006.1
20 20.04 З 1 н/о н/о +21.5 +20.1 92 +27 +27 душно 1010.8 1006.1
23 20.04 Ю 2 н/о н/о +26.6 +20.4 69 +33 +33 очень
душно
1012.4 1007.7
02 21.04 В 4 н/о н/о +33.1 +13.7 31 +34 +34 очень
жарко
1012.3 1007.6 +21.3
05 21.04 СВ 2 н/о 10/0 2000 м
[]
+33.9 +13.4 29 +35 +35 очень
жарко
1009.8 1005.1
08 21.04 С 2 н/о 5/0
[]
+32.4 +14.5 34 +34 +34 очень
жарко
1009.8 1005.1
11 21.04 СВ 2 н/о 1/0
[]
+27.9 +12.7 39 +29 +29 жарко 1012.0 1007.3
14 21.04 штиль 0 н/о н/о +25.0 +16.7 60 +29 +29 душно 1012.4 1007.7 +35.0
17 21.04 З 2 н/о н/о +21.6 +16.8 74 +26 +26 душно 1010.9 1006.2
20 21.04 штиль 0 н/о н/о +21.0 +17.6 81 +25 +25 комфорт 1011.7 1007.0
23 21.04 штиль 0 н/о н/о +26.3 +17.4 58 +30 +30 душно 1012.7 1008.0
02 22.04 ЮВ 4 н/о н/о +33.9 +11.1 25 +33 +33 жарко 1012.4 1007.7 +20.1
05 22.04 Ю 4 н/о 5/0
[]
+34.7 +6.9 18 +33 +33 жарко 1010.0 1005.3
08 22.04 Ю 2 н/о 8/0
[]
+33.8 +9.8 23 +33 +33 жарко 1010.2 1005.5
11 22.04 С 2 н/о н/о +27.6 +15.6 48 +31 +31 душно 1012.4 1007.7
14 22.04 штиль 0 н/о н/о +23.7 +17.2 67 +28 +28 душно 1012.6 1007.9 +36.1
17 22.04 ЮЗ 2 н/о н/о +22.6 +16.2 67 +27 +27 душно 1012.2 1007.5
20 22.04 ЮЗ 2 н/о 3/0
[]
+21.9 +13.3 58 +25 +25 комфорт 1012.6 1007.9

 

Местоположение метеостанции Аэропорт Макартур Ривер Майн (Северная территория, Австралия): широта -16.43 долгота 136.07 высота над уровнем моря 41 м.

В архиве по умолчанию представлена погода в Аэропорту Макартур Ривер Майн за последнюю неделю. Архивные данные за месяц целиком и за предыдущие месяцы, начиная с января 2011 года, Вы можете получить, выбрав интересующий диапазон дат из раскрывающегося списка и нажав кнопку "Ввод!".


*Определитесь, кто Вы:
робот инопланетянин человек

Внимание! Время в таблицах - всемирное. Для получения местного времени необходимо прибавить поправку, которая равна 9.5 ч.

Смотрите также архив погоды в соседних городах и на ближайших метеорологических станциях:

Погода в Борролооле (Северная территория, Австралия) (46 км)
Погода на Острове Центр (Северная территория, Австралия) (109 км)
Погода в Аэропорту Грут-Айленд (Северная территория, Австралия) (276 км)
Погода в Дейли Уотерс (Северная территория, Австралия) (289 км)
Погода на Острове Северо-восточный (Северная территория, Австралия) (323 км)
Погода на Острове Морнингтон (Квинсленд, Австралия) (332 км)
Погода в Булман Уимол (Северная территория, Австралия) (359 км)
Погода на Руднике Century Mine (Квинсленд, Австралия) (380 км)
Погода в Беркетауне (Квинсленд, Австралия) (396 км)
Погода в Теннант-Крике (Северная территория, Австралия) (408 км)

Пояснения к столбцам:

Ветер - указаны скорость ветра в м/с - средняя за 10 мин, порывы в срок и между сроками (в фигурных скобках) и направление, откуда дует ветер: С - северный, СВ - северо-восточный, В - восточный, ЮВ - юго-восточный, Ю - южный, ЮЗ - юго-западный, З - западный, СЗ - северо-западный.
Видимость - горизонтальная дальность видимости в метрах или километрах. При видимости от 1 до 10 км при отсутствии осадков обычно наблюдается дымка, при ухудшении видимости до 1 км и менее - туман. В сухую погоду видимость может ухудшаться дымом, пылью или мглою.
Явления - указаны атмосферные явления, наблюдавшиеся в срок или в последний час перед сроком; фигурными скобками обозначены явления, наблюдавшиеся между сроками (за 1-3 часа до срока); квадратными скобками обозначены град или гололедные отложения с указанием их диаметра в мм.
Облачность - указаны через наклонную черту общая и нижняя облачность в баллах и высота нижней границы облаков в метрах; квадратными скобками обозначены формы облаков: Ci - перистые, Cs - перисто-слоистые, Cc - перисто-кучевые, Ac - высококучевые, As - высокослоистые, Sc - слоисто-кучевые, Ns - слоисто-дождевые, Cu - кучевые, Cb - кучево-дождевые. Подробнее классификацию облаков см. в Атласе облаков (PDF).
T - Температура воздуха - температура, измеренная на высоте 2 м над землей.
Td - Температура точки росы - температура, при понижении до которой содержащийся в воздухе водяной пар достигнет насыщения.
f - Относительная влажность воздуха - влажноcть воздуха, измеренная на высоте 2 м над землей.
Te - Эффективная температура - температура, которую ощущает одетый по сезону человек в тени. Характеристика душности погоды. При расчете учитывается влияние влажности воздуха и скорости ветра на теплоощущения человека.
Tes - Эффективная температура на солнце - температура, которую ощущает человек, с поправкой на солнечный нагрев. Характеристика знойности погоды. Зависит от высоты солнца над горизонтом, облачности и скорости ветра. Ночью, в пасмурную погоду, а также при ветре 12 м/с и более поправка равна нулю.
P - Атмосферное давление - приведенное к уровню моря атмосферное давление.
Po - Атмосферное давление - измеренное на уровне метеостанции атмосферное давление.
Tmin - Минимальная температура - минимум температуры воздуха на высоте 2 м над землей.
Tmax - Максимальная температура - максимум температуры воздуха на высоте 2 м над землей.
R - Количество осадков - Количество выпавших осадков за период времени, мм. При наведении курсора мыши на число - период времени, за который выпало указанное количество осадков.
R24 - Количество осадков - Количество выпавших осадков за 24 часа, мм.
S - Снежный покров - Высота снежного покрова, см. При наведении курсора мыши на число - состояние снежного покрова и степень покрытия местности в баллах.